| time (UTC) | temp F | wind direction | speed MPH | gust MPH | rain 1hr in | rain 24hr in | rain mn in | humidity % | barometer mb |
| 20260901051535 | 82 | 168 | 4.0 | 11.0 | 0.00 | 0.00 | 0.00 | 69 | 1015.2 |
| 20260901050028 | 82 | 183 | 5.0 | 10.0 | 0.00 | 0.00 | 0.00 | 68 | 1015.1 |
| 20260901044532 | 83 | 187 | 6.0 | 11.0 | 0.00 | 0.00 | 0.00 | 68 | 1015.0 |
| 20260901043029 | 83 | 150 | 6.0 | 11.0 | 0.00 | 0.00 | 0.00 | 67 | 1015.0 |
| 20260901041528 | 84 | 150 | 7.0 | 13.0 | 0.00 | 0.00 | 0.00 | 66 | 1015.0 |
| 20260901040033 | 84 | 141 | 5.0 | 13.0 | 0.00 | 0.00 | 0.00 | 66 | 1014.9 |
| 20260901034533 | 84 | 109 | 8.0 | 16.0 | 0.00 | 0.00 | 0.00 | 65 | 1014.9 |
| 20260901033024 | 84 | 135 | 7.0 | 14.0 | 0.00 | 0.00 | 0.00 | 63 | 1014.8 |
| 20260901031543 | 85 | 148 | 4.0 | 13.0 | 0.00 | 0.00 | 0.00 | 59 | 1014.7 |
| 20260901030024 | 85 | 142 | 6.0 | 10.0 | 0.00 | 0.00 | 0.00 | 53 | 1014.4 |
| 20260901024623 | 86 | 117 | 4.0 | 8.0 | 0.00 | 0.00 | 0.00 | 49 | 1014.2 |
| 20260901023024 | 87 | 159 | 2.0 | 4.0 | 0.00 | 0.00 | 0.00 | 48 | 1013.9 |
| 20260901021520 | 88 | 98 | 3.0 | 6.0 | 0.00 | 0.00 | 0.00 | 46 | 1013.6 |
| 20260901020020 | 88 | 105 | 4.0 | 8.0 | 0.00 | 0.00 | 0.00 | 44 | 1013.5 |
| 20260901014519 | 88 | 124 | 2.0 | 5.0 | 0.00 | 0.00 | 0.00 | 44 | 1013.2 |
| 20260901013019 | 89 | 108 | 2.0 | 5.0 | 0.00 | 0.00 | 0.00 | 44 | 1013.1 |
| 20260901011517 | 89 | 141 | 3.0 | 5.0 | 0.00 | 0.00 | 0.00 | 44 | 1013.1 |
| 20260901010031 | 90 | 124 | 1.0 | 3.0 | 0.00 | 0.00 | 0.00 | 44 | 1012.9 |
| 20260901004516 | 92 | 152 | 0.0 | 4.0 | 0.00 | 0.00 | 0.00 | 42 | 1012.9 |
| 20260901003015 | 93 | 127 | 3.0 | 8.0 | 0.00 | 0.00 | 0.00 | 41 | 1012.9 |
| 20260901001519 | 93 | 128 | 2.0 | 10.0 | 0.00 | 0.00 | 0.00 | 41 | 1012.7 |
| 20260901000015 | 94 | 120 | 4.0 | 11.0 | 0.00 | 0.00 | 0.00 | 40 | 1012.8 |
| 20260831234513 | 94 | 154 | 3.0 | 9.0 | 0.00 | 0.00 | 0.00 | 38 | 1012.7 |
| 20260831233015 | 95 | 125 | 4.0 | 11.0 | 0.00 | 0.00 | 0.00 | 39 | 1012.6 |
| 20260831231511 | 95 | 140 | 5.0 | 9.0 | 0.00 | 0.00 | 0.00 | 40 | 1012.7 |
| 20260831230013 | 96 | 214 | 6.0 | 13.0 | 0.00 | 0.00 | 0.00 | 38 | 1012.9 |
| 20260831224509 | 95 | 133 | 7.0 | 15.0 | 0.00 | 0.00 | 0.00 | 39 | 1012.8 |
| 20260831223007 | 95 | 159 | 6.0 | 14.0 | 0.00 | 0.00 | 0.00 | 38 | 1013.0 |
| 20260831221516 | 96 | 148 | 1.0 | 8.0 | 0.00 | 0.00 | 0.00 | 40 | 1013.0 |
| 20260831220004 | 95 | 156 | 5.0 | 11.0 | 0.00 | 0.00 | 0.00 | 40 | 1013.1 |
| 20260831214501 | 96 | 153 | 5.0 | 10.0 | 0.00 | 0.00 | 0.00 | 39 | 1013.4 |
| 20260831213058 | 95 | 94 | 5.0 | 12.0 | 0.00 | 0.00 | 0.00 | 39 | 1013.5 |
| 20260831211608 | 95 | 153 | 3.0 | 11.0 | 0.00 | 0.00 | 0.00 | 41 | 1013.7 |
| 20260831210054 | 94 | 77 | 6.0 | 12.0 | 0.00 | 0.00 | 0.00 | 42 | 1013.9 |
| 20260831204552 | 95 | 225 | 7.0 | 14.0 | 0.00 | 0.00 | 0.00 | 42 | 1014.3 |
| 20260831203048 | 94 | 179 | 5.0 | 11.0 | 0.00 | 0.00 | 0.00 | 42 | 1014.5 |
| 20260831201550 | 94 | 133 | 4.0 | 13.0 | 0.00 | 0.00 | 0.00 | 42 | 1014.9 |
| 20260831200043 | 93 | 166 | 4.0 | 11.0 | 0.00 | 0.00 | 0.00 | 44 | 1015.1 |
| 20260831194615 | 93 | 192 | 6.0 | 15.0 | 0.00 | 0.00 | 0.00 | 44 | 1015.3 |
| 20260831193038 | 92 | 109 | 5.0 | 16.0 | 0.00 | 0.00 | 0.00 | 46 | 1015.4 |
| 20260831191538 | 92 | 164 | 7.0 | 14.0 | 0.00 | 0.00 | 0.00 | 48 | 1015.7 |
| 20260831190039 | 92 | 163 | 5.0 | 13.0 | 0.00 | 0.00 | 0.00 | 50 | 1015.9 |
| 20260831184543 | 91 | 176 | 6.0 | 17.0 | 0.00 | 0.00 | 0.00 | 51 | 1015.8 |
| 20260831183032 | 91 | 113 | 4.0 | 13.0 | 0.00 | 0.00 | 0.00 | 53 | 1016.1 |
| 20260831181533 | 90 | 151 | 5.0 | 11.0 | 0.00 | 0.00 | 0.00 | 54 | 1016.2 |
| 20260831180029 | 90 | 105 | 3.0 | 11.0 | 0.00 | 0.00 | 0.00 | 55 | 1016.4 |
| 20260831174543 | 89 | 160 | 3.0 | 14.0 | 0.00 | 0.00 | 0.00 | 55 | 1016.6 |
| 20260831173025 | 89 | 129 | 4.0 | 11.0 | 0.00 | 0.00 | 0.00 | 55 | 1016.7 |
| 20260831171538 | 89 | 135 | 2.0 | 12.0 | 0.00 | 0.00 | 0.00 | 58 | 1016.9 |
| 20260831170054 | 88 | 160 | 5.0 | 12.0 | 0.00 | 0.00 | 0.00 | 58 | 1017.1 |
| 20260831164530 | 88 | 161 | 4.0 | 9.0 | 0.00 | 0.00 | 0.00 | 59 | 1017.0 |
| 20260831163019 | 87 | 119 | 3.0 | 10.0 | 0.00 | 0.00 | 0.00 | 60 | 1017.0 |
| 20260831161517 | 87 | 228 | 4.0 | 8.0 | 0.00 | 0.00 | 0.00 | 62 | 1017.0 |
| 20260831160023 | 86 | 169 | 4.0 | 9.0 | 0.00 | 0.00 | 0.00 | 66 | 1016.9 |
| 20260831154513 | 86 | 161 | 3.0 | 12.0 | 0.00 | 0.00 | 0.00 | 68 | 1017.0 |
| 20260831153010 | 84 | 126 | 6.0 | 12.0 | 0.00 | 0.00 | 0.00 | 71 | 1016.8 |
| 20260831151510 | 82 | 197 | 5.0 | 9.0 | 0.00 | 0.00 | 0.00 | 74 | 1016.6 |
| 20260831150006 | 83 | 187 | 6.0 | 11.0 | 0.00 | 0.00 | 0.00 | 75 | 1016.7 |
| 20260831144509 | 81 | 221 | 5.0 | 11.0 | 0.00 | 0.00 | 0.00 | 78 | 1016.5 |
| 20260831143002 | 80 | 226 | 4.0 | 10.0 | 0.00 | 0.00 | 0.00 | 81 | 1016.4 |
| 20260831141502 | 80 | 186 | 1.0 | 8.0 | 0.00 | 0.00 | 0.00 | 83 | 1016.3 |
| 20260831140100 | 79 | 219 | 3.0 | 8.0 | 0.00 | 0.00 | 0.00 | 84 | 1016.1 |
| 20260831134559 | 79 | 183 | 3.0 | 10.0 | 0.00 | 0.00 | 0.00 | 87 | 1016.1 |
| 20260831133059 | 78 | 195 | 2.0 | 6.0 | 0.00 | 0.00 | 0.00 | 89 | 1015.8 |
| 20260831131555 | 77 | 205 | 2.0 | 4.0 | 0.00 | 0.00 | 0.00 | 90 | 1015.8 |
| 20260831130053 | 76 | 166 | 2.0 | 4.0 | 0.00 | 0.00 | 0.00 | 92 | 1015.7 |
| 20260831124554 | 75 | 194 | 2.0 | 4.0 | 0.00 | 0.00 | 0.00 | 93 | 1015.5 |
| 20260831123054 | 75 | 176 | 1.0 | 2.0 | 0.00 | 0.00 | 0.00 | 93 | 1015.5 |
| 20260831121552 | 74 | 173 | 1.0 | 3.0 | 0.00 | 0.00 | 0.00 | 93 | 1015.5 |
| 20260831120050 | 75 | 183 | 0.0 | 4.0 | 0.00 | 0.00 | 0.00 | 92 | 1015.5 |
| 20260831114549 | 75 | 216 | 1.0 | 3.0 | 0.00 | 0.00 | 0.00 | 92 | 1015.4 |
| 20260831113057 | 76 | 189 | 2.0 | 5.0 | 0.00 | 0.00 | 0.00 | 91 | 1015.4 |
| 20260831111548 | 76 | 210 | 2.0 | 8.0 | 0.00 | 0.00 | 0.00 | 91 | 1015.3 |
| 20260831110048 | 76 | 193 | 3.0 | 9.0 | 0.00 | 0.00 | 0.00 | 91 | 1015.2 |
| 20260831104547 | 76 | 169 | 2.0 | 5.0 | 0.00 | 0.00 | 0.00 | 91 | 1015.3 |
| 20260831103100 | 75 | 158 | 2.0 | 6.0 | 0.00 | 0.00 | 0.00 | 91 | 1015.2 |
| 20260831101555 | 75 | 210 | 3.0 | 8.0 | 0.00 | 0.00 | 0.00 | 91 | 1015.2 |
| 20260831100044 | 75 | 177 | 3.0 | 8.0 | 0.00 | 0.00 | 0.00 | 91 | 1015.2 |
| 20260831094543 | 75 | 214 | 3.0 | 8.0 | 0.00 | 0.00 | 0.00 | 90 | 1015.2 |
| 20260831093047 | 75 | 178 | 4.0 | 8.0 | 0.00 | 0.00 | 0.00 | 90 | 1015.2 |
| 20260831091542 | 75 | 169 | 4.0 | 8.0 | 0.00 | 0.00 | 0.00 | 89 | 1015.2 |
| 20260831090048 | 75 | 165 | 4.0 | 8.0 | 0.00 | 0.00 | 0.00 | 88 | 1015.2 |
| 20260831084543 | 75 | 145 | 5.0 | 8.0 | 0.00 | 0.00 | 0.00 | 88 | 1015.2 |
| 20260831083037 | 75 | 174 | 4.0 | 9.0 | 0.00 | 0.00 | 0.00 | 87 | 1015.2 |
| 20260831081535 | 75 | 234 | 4.0 | 8.0 | 0.00 | 0.00 | 0.00 | 86 | 1015.3 |
| 20260831080048 | 76 | 167 | 5.0 | 8.0 | 0.00 | 0.00 | 0.00 | 85 | 1015.3 |
| 20260831074531 | 76 | 152 | 5.0 | 9.0 | 0.00 | 0.00 | 0.00 | 84 | 1015.4 |
| 20260831073128 | 77 | 168 | 5.0 | 10.0 | 0.00 | 0.00 | 0.00 | 83 | 1015.3 |
| 20260831071526 | 77 | 184 | 4.0 | 9.0 | 0.00 | 0.00 | 0.00 | 81 | 1015.4 |
| 20260831070024 | 77 | 158 | 4.0 | 10.0 | 0.00 | 0.00 | 0.00 | 80 | 1015.4 |
| 20260831064522 | 78 | 160 | 5.0 | 9.0 | 0.00 | 0.00 | 0.00 | 79 | 1015.5 |
| 20260831063022 | 78 | 164 | 5.0 | 11.0 | 0.00 | 0.00 | 0.00 | 78 | 1015.6 |
| 20260831061516 | 79 | 172 | 4.0 | 13.0 | 0.00 | 0.00 | 0.00 | 76 | 1015.5 |
| 20260831060013 | 79 | 105 | 4.0 | 12.0 | 0.00 | 0.00 | 0.00 | 74 | 1015.4 |
| 20260831054510 | 80 | 141 | 4.0 | 10.0 | 0.00 | 0.00 | 0.00 | 73 | 1015.3 |
| 20260831053013 | 80 | 144 | 4.0 | 9.0 | 0.00 | 0.00 | 0.00 | 74 | 1015.1 |